Flag for Poland Weather past 2 weeks in Bydgoszcz, Poland

Now
43 °F

Fog.


Feels Like: 43 °F
Forecast: 35 / 49 °F
Wind: 2 mph from East

Location: Torun

Current Time: Feb 27, 2015 at 6:03:03 PM

Latest Report: Feb 27, 2015 at 5:00 PM


Visibility: 2 mi

Pressure: 29.98 "Hg

Humidity: 86%

Dew point: 39 °F

Location of BydgoszczLocation

Historic Weather in Bydgoszcz — Graph

°F

Bydgoszcz temperature yesterday

Maximum temperature yesterday: 45 °F (at 2:00 PM)
Minimum temperature yesterday: 33 °F (at 7:00 AM)
Average temperature yesterday: 39 °F

Past Weeks' High & Low Weather Summary

 TemperatureHumidityPressure
High47 °F (Feb 21, 2:00 PM)100% (Feb 23, 12:00 AM)30.66 "Hg (Feb 23, 12:00 AM)
Low22 °F (Feb 18, 3:00 AM)44% (Feb 16, 4:00 PM)29.47 "Hg (Feb 21, 2:00 PM)
Average35 °F79%30.10 "Hg
* Reported Feb 12 4:00 PM — Feb 27 4:00 PM, Bydgoszcz, Weather by CustomWeather, © 2015

Note: Actual official high and low records may vary slightly from our data, if they occured in-between our weather recording intervals... More about our weather records

Advertising

Bydgoszcz weather history for previous 24 hours

 ConditionsComfort  
Time TempWeatherWind HumidityBarometerVisibility
4:00 PM
Fri, Feb 27
44 °FFog.2 mph83%29.98 "Hg3 mi
3:00 PM44 °FFog.2 mph82%29.98 "Hg4 mi
2:00 PM43 °FFog.3 mph86%29.98 "Hg3 mi
1:00 PM42 °FFog.3 mph87%29.98 "Hg3 mi
12:00 PM42 °FFog.3 mph89%29.99 "Hg3 mi
11:00 AM41 °FFog.3 mph90%30.00 "Hg2 mi
10:00 AM41 °FFog.3 mph90%30.01 "Hg2 mi
9:00 AM40 °FFog.3 mph92%30.01 "Hg2 mi
8:00 AM40 °FFog.2 mph91%30.02 "Hg2 mi
7:00 AM39 °FFog.1 mph91%30.02 "Hg3 mi
6:00 AM39 °FFog.2 mph91%30.02 "Hg3 mi
5:00 AM38 °FFog.2 mph91%30.02 "Hg2 mi
4:00 AM38 °FFog.2 mph91%30.03 "Hg2 mi
2:00 AM37 °FFog.1 mph93%30.07 "Hg2 mi
1:00 AM36 °FFog.1 mph93%30.09 "Hg2 mi
12:00 AM36 °FFog.2 mph92%30.10 "Hg2 mi
11:00 PM
Thu, Feb 26
38 °FFog.2 mph90%30.11 "Hg2 mi
10:00 PM38 °FFog.1 mph91%30.13 "Hg2 mi
9:00 PM38 °FFog.1 mph90%30.14 "Hg2 mi
8:00 PM39 °FFog.1 mph89%30.15 "Hg2 mi
7:00 PM40 °FFog.2 mph87%30.16 "Hg2 mi
6:00 PM41 °FFog.1 mph87%30.17 "Hg2 mi
Weather by CustomWeather, © 2015

See weather overviewHow to use our weather pages